Wind_Speed
37 30 30 31 32 31 28 26 21 14 10 7 7 8 11 12 14 16 17 21 24 26 29 31 33 36 40 43 47 49 51 52 54 55 58 58 59 58 56 54 50 49 48
33 26 27 27 27 27 25 22 19 16 12 10 10 10 12 14 16 19 22 24 26 28 31 34 37 40 44 46 48 50 52 54 56 55 53 50 47 47 44 43 38 38 39
29 24 24 25 24 24 22 20 18 16 13 12 13 14 15 19 21 21 23 26 29 33 37 39 42 45 48 50 51 53 54 53 52 48 43 42 41 37 32 30 30 31 33
27 22 23 22 20 20 18 17 15 14 14 14 15 18 20 21 22 24 27 30 34 37 41 45 47 50 50 52 53 53 52 50 42 40 39 37 35 32 30 29 26 29 30
25 21 21 20 17 16 15 14 13 13 15 18 20 21 22 23 24 27 30 34 37 41 45 48 50 52 53 55 55 53 48 41 37 38 36 33 32 30 30 32 33 32 30
24 21 20 19 16 13 14 12 13 16 18 19 21 23 25 26 28 31 34 37 41 44 47 50 52 53 54 54 53 50 43 35 33 30 29 29 28 30 30 30 31 30 28
24 21 21 19 17 16 15 15 15 17 20 22 24 26 28 30 32 35 38 40 44 46 49 50 52 54 54 52 48 43 34 31 25 27 29 31 31 31 32 31 31 29 25
24 21 23 20 18 19 18 17 18 19 21 23 26 28 30 33 36 38 42 45 48 51 52 52 54 56 54 48 42 34 32 29 27 30 33 34 34 33 33 31 28 22 18
22 22 23 21 19 20 20 21 19 21 23 24 26 29 33 36 39 42 43 46 49 51 53 54 56 55 53 46 38 29 28 28 31 34 37 36 35 32 31 29 24 19 14
21 21 21 20 19 20 21 21 23 23 24 25 27 30 33 36 37 39 43 48 50 50 51 55 57 55 50 44 38 28 26 28 31 34 37 35 32 28 27 21 15 14 12
21 20 20 20 21 21 20 21 22 22 23 26 29 32 30 31 35 40 44 46 47 50 54 56 56 54 47 41 36 28 26 29 33 31 32 28 26 24 20 15 12 11 11
21 21 21 21 22 21 20 20 20 21 22 25 26 28 35 41 44 48 49 48 49 51 55 56 56 51 45 35 30 26 28 31 28 29 32 23 21 21 17 14 11 9 9
20 20 21 21 22 20 20 18 19 19 21 24 28 34 38 42 45 47 47 46 49 53 56 59 58 51 38 30 27 27 30 30 27 29 25 19 21 18 15 11 10 9 9
19 20 21 21 21 20 19 17 17 18 22 25 29 34 37 41 44 45 44 46 50 55 58 57 52 38 25 26 28 30 30 27 26 30 19 18 20 15 12 9 9 9 10
20 20 20 20 19 19 19 15 16 18 22 25 31 35 37 40 41 41 42 45 50 53 55 53 39 26 25 27 28 29 27 30 27 20 17 18 17 13 10 9 9 10 10
19 19 19 19 17 18 16 13 16 19 22 26 29 32 36 39 39 39 42 47 51 53 52 39 25 26 27 25 26 29 28 32 28 17 15 16 13 11 10 10 10 10 10
19 19 18 18 17 16 14 15 18 20 24 28 31 35 40 40 40 40 42 46 50 51 46 25 24 24 25 26 27 28 27 30 30 20 16 13 12 11 11 11 11 11 10
18 18 18 18 16 15 15 17 20 24 30 34 33 37 40 41 39 39 42 45 48 48 41 23 24 26 26 27 27 26 24 24 25 20 17 14 12 12 11 12 12 11 11
18 17 17 17 15 14 16 19 22 27 31 36 35 38 39 39 39 39 40 44 49 47 35 22 24 27 27 27 27 24 23 23 20 18 16 14 13 12 12 12 11 10 9
18 18 17 16 14 15 18 21 25 29 31 33 34 37 40 35 38 41 43 45 47 43 32 20 22 25 25 23 23 22 22 22 20 18 17 17 18 16 14 12 10 9 8
18 17 16 15 16 17 21 24 27 30 30 33 36 36 37 34 36 39 41 44 44 39 29 18 20 24 23 22 21 20 23 19 15 17 15 17 15 14 14 13 11 10 9
17 17 17 16 18 20 23 27 28 28 30 32 35 37 34 34 36 38 40 43 42 36 27 16 19 22 21 20 19 19 19 20 13 10 9 9 11 11 12 13 12 11 11
17 16 17 17 18 22 24 27 27 27 30 32 34 33 32 34 35 37 40 43 39 33 24 15 17 19 19 16 16 16 16 17 15 11 9 6 8 9 10 13 12 11 11
16 16 17 18 18 22 24 27 24 26 28 32 32 30 31 35 36 38 42 41 36 30 22 13 15 18 17 13 13 14 14 14 14 13 10 7 8 10 9 10 11 11 11
15 16 17 19 20 22 24 20 24 26 29 30 28 29 31 34 36 40 41 37 33 28 19 11 13 16 14 9 10 11 13 12 13 13 13 11 8 8 10 11 11 11 10
14 18 18 19 21 22 18 21 24 27 28 27 26 29 31 33 37 40 36 34 31 25 16 9 11 14 11 7 8 11 11 12 11 11 11 11 10 11 10 10 10 10 9
Wind_Direction
328 327 333 336 346 350 355 356 359 357 355 342 326 323 324 331 335 335 335 335 332 322 322 319 317 315 311 313 313 312 310 308 306 304 302 299 297 296 294 292 291 287 286
326 325 331 337 347 347 356 357 359 353 348 338 338 348 351 348 344 342 338 327 324 325 324 323 322 321 319 319 317 316 315 314 311 308 305 305 305 301 298 296 290 286 284
322 320 328 333 342 346 350 351 350 348 353 359 1 358 352 350 344 335 329 331 332 330 328 327 328 326 324 323 322 321 319 316 312 310 312 312 309 308 304 299 292 290 283
321 315 323 328 338 346 351 356 356 358 358 357 358 355 349 340 335 334 337 335 333 331 331 332 331 327 326 327 326 323 321 318 316 315 315 314 313 315 311 305 296 289 291
318 307 314 322 329 342 349 357 353 356 356 356 353 345 337 334 335 338 337 335 333 334 333 332 330 328 329 328 328 326 324 320 319 317 319 320 320 318 312 308 302 297 295
315 302 304 313 312 323 332 339 345 351 348 344 340 335 333 335 336 337 336 335 335 335 332 330 330 330 331 331 330 328 324 322 325 328 332 333 331 328 321 315 310 305 298
311 298 298 303 300 299 308 318 328 333 331 330 333 334 332 334 335 336 336 336 334 333 332 331 331 333 334 334 330 325 321 326 328 331 330 325 324 321 319 318 313 315 308
308 294 297 293 291 290 294 302 314 321 322 326 329 330 330 334 335 336 337 336 334 334 333 332 335 335 336 334 328 322 320 323 321 323 323 323 319 318 320 319 316 318 317
302 298 297 289 286 287 291 294 302 311 315 320 324 327 332 333 337 339 337 336 335 332 332 335 336 337 335 333 331 322 317 316 316 318 319 321 321 319 320 318 316 322 327
297 300 298 290 286 288 292 296 297 304 312 316 321 327 332 339 336 333 335 336 335 332 335 337 337 337 335 333 331 323 323 317 317 320 319 319 322 320 322 323 317 320 323
294 296 297 293 291 292 294 295 298 302 307 314 322 330 331 327 326 332 335 337 337 337 339 339 338 336 335 331 328 327 327 323 327 331 333 333 330 330 331 332 330 323 320
293 293 297 296 293 292 294 296 298 301 309 319 327 324 325 330 336 337 339 339 337 339 339 338 338 337 334 331 330 333 331 330 332 337 338 333 336 337 338 339 339 339 346
295 293 296 295 292 292 294 295 295 305 315 320 327 335 338 336 339 338 337 338 339 340 340 340 339 338 343 342 340 338 335 336 336 339 340 340 345 346 346 352 1 10 8
297 297 297 295 295 296 292 292 298 309 319 329 336 338 337 337 338 337 337 339 340 342 342 341 340 346 342 347 347 343 342 342 339 341 345 349 349 354 1 12 20 16 12
299 301 303 300 300 297 291 294 304 315 325 334 340 336 336 335 335 335 337 339 342 343 343 344 350 6 2 356 353 352 355 348 342 351 355 351 354 3 19 29 22 18 20
301 305 308 303 300 296 290 297 308 322 332 336 334 328 330 335 337 338 340 342 344 344 348 349 3 2 359 359 355 355 356 0 3 358 353 355 8 22 39 35 30 30 32
304 308 311 306 299 291 290 301 312 320 324 325 332 332 336 338 339 341 343 343 344 347 351 354 360 357 355 355 354 356 359 1 8 14 11 21 29 43 47 43 39 41 49
307 309 313 309 299 294 298 307 315 321 325 329 337 336 337 337 339 342 343 343 345 349 351 353 354 352 348 349 351 357 354 0 7 20 27 32 43 52 52 47 46 52 59
309 308 310 305 293 291 299 309 317 323 329 329 337 335 336 337 338 340 342 344 347 350 351 347 350 351 352 355 359 358 4 7 11 19 29 42 50 53 50 49 52 57 61
304 307 307 302 292 292 299 307 317 324 326 329 335 335 334 337 338 340 343 346 347 348 347 344 348 352 354 356 1 6 10 15 24 43 50 54 54 50 49 48 48 47 46
301 306 304 297 289 293 300 306 317 322 325 329 331 334 333 338 337 339 343 343 345 347 345 341 347 353 356 353 5 12 16 21 46 51 57 57 49 48 46 40 38 36 32
300 299 299 298 296 300 303 309 319 320 324 327 329 333 334 339 339 340 341 342 344 346 345 339 347 355 357 359 9 14 20 26 36 39 42 66 54 40 48 34 35 34 32
295 294 296 300 303 304 309 312 317 321 325 327 330 333 333 337 339 340 340 342 344 346 345 338 348 354 355 5 13 18 23 24 31 30 40 50 40 30 38 30 27 30 31
289 291 296 303 307 311 314 319 322 324 325 328 331 334 336 337 340 340 341 343 345 346 344 336 349 354 355 7 18 22 24 27 27 28 26 22 27 28 20 20 31 30 31
296 292 299 306 308 314 318 320 322 325 327 329 333 335 338 340 340 341 343 345 347 346 342 336 352 355 358 12 22 23 22 26 24 27 29 32 20 15 25 22 34 32 33
305 300 304 305 311 316 319 321 323 326 328 332 335 338 341 342 341 342 345 347 347 347 341 337 353 358 0 9 16 19 25 30 30 30 27 28 30 25 27 29 27 30 36
Height
5758 5752 5747 5741 5734 5727 5720 5714 5709 5706 5704 5703 5703 5702 5702 5700 5699 5697 5695 5693 5690 5688 5684 5681 5676 5672 5666 5659 5651 5644 5636 5628 5620 5610 5600 5591 5582 5574 5567 5560 5555 5550 5546
5754 5750 5745 5740 5733 5728 5722 5717 5713 5710 5707 5706 5704 5703 5701 5700 5698 5695 5693 5690 5688 5683 5679 5675 5669 5663 5654 5647 5639 5630 5621 5610 5600 5592 5582 5573 5565 5558 5552 5546 5542 5538 5535
5751 5747 5743 5738 5733 5728 5723 5718 5714 5712 5709 5707 5705 5702 5701 5698 5696 5693 5691 5686 5682 5678 5672 5665 5659 5651 5643 5634 5625 5615 5605 5594 5584 5575 5567 5560 5552 5547 5541 5535 5532 5530 5526
5746 5743 5740 5737 5732 5727 5723 5719 5716 5713 5710 5708 5705 5702 5700 5697 5694 5690 5686 5681 5676 5670 5663 5655 5647 5639 5630 5621 5611 5602 5592 5581 5571 5563 5557 5550 5543 5538 5532 5528 5525 5521 5518
5741 5739 5737 5734 5730 5727 5723 5719 5716 5713 5710 5707 5704 5701 5698 5695 5691 5686 5681 5675 5669 5662 5654 5646 5638 5628 5619 5609 5599 5589 5579 5570 5563 5555 5548 5541 5535 5530 5526 5521 5517 5513 5511
5737 5735 5733 5731 5728 5725 5722 5718 5716 5712 5709 5706 5704 5700 5696 5691 5686 5681 5676 5669 5662 5655 5647 5638 5629 5619 5608 5597 5586 5575 5567 5561 5555 5547 5541 5535 5529 5524 5519 5513 5508 5503 5501
5732 5731 5729 5727 5725 5722 5719 5717 5713 5710 5708 5705 5701 5697 5692 5687 5681 5676 5670 5663 5656 5649 5641 5630 5620 5609 5597 5586 5576 5567 5561 5555 5548 5543 5537 5530 5524 5518 5512 5506 5501 5495 5491
5728 5726 5724 5722 5720 5718 5716 5714 5711 5708 5705 5701 5698 5693 5688 5682 5676 5670 5663 5656 5648 5639 5630 5620 5610 5599 5589 5579 5570 5560 5554 5549 5544 5537 5531 5525 5518 5511 5505 5499 5494 5490 5486
5723 5721 5719 5717 5715 5714 5712 5710 5707 5704 5701 5698 5694 5689 5683 5677 5671 5663 5658 5650 5641 5631 5621 5611 5601 5590 5580 5571 5563 5554 5549 5543 5537 5531 5525 5517 5511 5504 5499 5494 5488 5485 5483
5719 5716 5714 5712 5711 5709 5707 5705 5703 5700 5697 5694 5690 5685 5679 5672 5667 5660 5652 5643 5633 5625 5615 5602 5592 5582 5570 5560 5554 5548 5543 5538 5532 5526 5519 5510 5504 5498 5493 5488 5485 5483 5481
5714 5712 5710 5709 5707 5705 5703 5701 5698 5696 5693 5689 5684 5680 5676 5672 5666 5657 5648 5638 5628 5616 5606 5595 5584 5572 5562 5553 5546 5541 5537 5531 5525 5519 5511 5504 5499 5494 5489 5485 5482 5480 5479
5709 5708 5706 5704 5703 5700 5698 5696 5694 5692 5688 5685 5681 5677 5670 5661 5654 5645 5637 5629 5619 5610 5600 5589 5577 5565 5555 5547 5541 5536 5531 5525 5519 5513 5507 5501 5496 5491 5487 5484 5481 5479 5478
5704 5703 5701 5700 5698 5696 5694 5691 5690 5687 5685 5682 5676 5669 5662 5654 5648 5640 5632 5624 5614 5604 5592 5580 5567 5556 5548 5541 5536 5532 5527 5520 5515 5510 5504 5499 5494 5490 5486 5483 5481 5479 5478
5700 5699 5697 5695 5693 5691 5689 5687 5686 5684 5680 5676 5671 5665 5659 5651 5643 5634 5625 5616 5608 5597 5585 5573 5561 5552 5545 5541 5535 5530 5523 5517 5511 5506 5501 5497 5493 5489 5486 5484 5482 5481 5479
5697 5695 5693 5691 5689 5687 5686 5684 5682 5679 5676 5672 5666 5660 5655 5649 5641 5632 5623 5614 5604 5593 5581 5568 5558 5551 5546 5541 5535 5529 5522 5516 5508 5503 5499 5496 5493 5489 5487 5485 5484 5483 5481
5693 5691 5689 5687 5685 5683 5682 5681 5679 5675 5672 5668 5664 5658 5652 5644 5636 5627 5617 5608 5598 5588 5576 5565 5558 5552 5547 5542 5535 5529 5522 5515 5507 5502 5499 5496 5493 5491 5489 5487 5486 5484 5483
5689 5687 5685 5683 5681 5680 5679 5677 5675 5672 5668 5665 5660 5652 5644 5637 5630 5621 5612 5603 5594 5584 5574 5566 5559 5553 5548 5542 5535 5529 5523 5516 5509 5503 5500 5497 5494 5493 5491 5490 5488 5487 5485
5685 5683 5681 5679 5677 5677 5675 5674 5671 5667 5662 5657 5654 5646 5639 5631 5624 5617 5609 5601 5591 5580 5571 5564 5559 5553 5547 5541 5535 5529 5523 5517 5512 5507 5502 5499 5497 5496 5494 5493 5491 5489 5488
5681 5679 5677 5675 5674 5673 5672 5670 5667 5663 5658 5650 5648 5641 5635 5627 5619 5613 5606 5597 5586 5577 5569 5563 5559 5553 5547 5541 5535 5529 5524 5518 5513 5509 5506 5503 5501 5499 5497 5496 5494 5493 5492
5677 5675 5673 5672 5671 5669 5668 5666 5663 5659 5654 5649 5645 5637 5630 5623 5615 5607 5598 5591 5583 5575 5567 5562 5558 5553 5546 5541 5536 5531 5525 5520 5516 5512 5509 5507 5505 5503 5501 5499 5497 5496 5494
5673 5672 5670 5669 5667 5666 5665 5662 5659 5655 5650 5644 5638 5634 5625 5620 5612 5605 5597 5589 5581 5574 5566 5561 5557 5552 5547 5541 5537 5532 5527 5523 5519 5516 5514 5512 5510 5507 5505 5503 5501 5499 5497
5670 5668 5666 5665 5664 5663 5661 5657 5654 5650 5645 5640 5634 5627 5621 5616 5609 5601 5594 5586 5578 5571 5564 5560 5556 5552 5547 5542 5538 5534 5530 5526 5523 5520 5518 5516 5513 5511 5509 5506 5504 5502 5500
5665 5664 5663 5662 5661 5658 5657 5653 5650 5645 5641 5636 5630 5624 5618 5612 5606 5598 5591 5583 5575 5568 5562 5558 5555 5551 5547 5543 5539 5536 5532 5529 5525 5523 5520 5518 5516 5514 5512 5509 5507 5504 5502
5661 5661 5659 5658 5657 5654 5651 5648 5644 5641 5637 5631 5625 5620 5614 5607 5601 5594 5587 5579 5572 5565 5560 5556 5554 5551 5547 5544 5541 5537 5534 5531 5528 5525 5522 5521 5519 5517 5515 5511 5508 5506 5504
5658 5657 5656 5655 5653 5650 5647 5644 5641 5637 5632 5627 5622 5617 5611 5605 5598 5590 5583 5576 5569 5563 5558 5555 5553 5550 5547 5544 5542 5539 5536 5534 5531 5528 5525 5523 5521 5519 5515 5513 5511 5509 5506
5654 5653 5652 5651 5648 5646 5643 5641 5637 5633 5628 5623 5619 5614 5608 5602 5595 5587 5580 5573 5567 5562 5557 5555 5553 5550 5547 5545 5543 5541 5538 5536 5533 5530 5528 5525 5523 5520 5517 5515 5513 5511 5509